Vorticity
5 8 7 7 6 8 8 10 10 7 8 6 10 2 7 19 1 -0 6 3 5 3 4 3 5 8 8 11 10 10 10 9 9 9 9 6 7 7 9 9 6 8 8 6 6 6 5 5 7 7 6 8 9 9 10 10 10 7 6 7 6 4 2 2 2 3 3 4 4 4 4 4 4 4 5 5 6 5 4 6 7 7 6 6 7 8 10 12 12 11 12 11 11 9 8 7 6
5 6 8 6 4 8 8 8 9 10 7 6 9 0 12 16 0 5 4 4 6 2 4 2 4 7 8 9 7 8 8 9 11 10 7 4 6 7 7 9 9 8 6 6 6 6 7 7 8 7 7 9 10 9 8 7 6 5 6 6 4 1 1 2 2 3 4 4 4 4 4 4 5 5 4 5 5 5 5 7 8 8 6 6 7 7 10 12 12 13 13 11 10 8 8 7 7
5 6 8 6 3 7 7 7 8 9 7 6 7 4 18 14 -1 6 4 4 5 5 5 2 5 7 7 7 8 9 6 7 6 7 8 6 5 6 7 7 10 8 5 8 7 6 7 7 8 8 9 9 7 7 6 5 4 6 7 4 2 1 2 2 3 4 4 3 3 4 4 6 6 4 4 4 4 5 5 6 9 8 7 7 7 8 10 10 11 12 12 9 7 8 8 8 8
6 6 6 5 4 6 5 7 7 8 9 7 7 6 13 6 0 6 3 4 5 9 6 3 7 7 8 6 7 9 6 7 5 6 7 8 6 6 7 6 10 9 6 9 8 7 6 6 9 9 9 8 7 7 5 5 6 7 5 2 1 2 2 2 3 3 3 4 3 5 5 6 5 4 5 5 5 7 8 8 10 9 8 8 7 8 9 10 10 9 9 8 7 8 7 7 8
5 5 4 4 5 6 6 9 7 7 9 9 9 5 6 3 4 6 1 3 4 7 6 5 7 7 10 7 7 8 7 6 4 7 7 7 7 6 6 6 8 8 9 11 7 6 7 6 9 8 8 8 7 7 4 5 6 7 3 1 1 1 2 2 3 2 3 4 4 7 7 5 5 6 7 6 6 8 10 10 10 10 8 8 8 8 8 9 9 8 8 8 8 8 7 7 8
5 4 3 4 4 5 6 8 9 9 6 9 10 5 8 6 4 5 1 3 4 5 6 7 7 9 10 8 10 9 7 6 5 7 8 7 7 6 5 6 6 7 10 12 6 5 9 7 7 7 7 7 6 5 4 5 6 5 2 0 0 0 2 2 3 3 4 5 5 9 9 7 6 6 8 8 9 10 11 10 10 10 8 8 8 7 7 8 7 7 7 8 9 9 8 8 9
5 4 3 4 2 4 5 5 7 8 6 6 10 9 11 6 3 5 2 2 4 4 5 7 8 8 9 8 10 9 8 7 5 7 8 7 7 7 5 5 5 6 9 11 7 6 9 6 6 6 6 7 5 5 4 5 5 4 1 -1 0 1 3 3 2 4 5 6 7 9 9 9 7 7 8 7 8 10 10 9 10 9 7 8 7 6 7 7 7 7 6 8 9 10 10 9 10
5 3 3 5 2 2 5 7 7 7 6 5 10 12 10 4 3 5 3 3 4 6 5 7 8 5 8 9 9 10 9 7 7 6 8 8 7 7 5 4 5 6 8 10 8 7 7 5 6 6 6 6 5 5 4 5 5 4 2 0 1 1 3 3 3 5 6 6 7 8 9 9 8 9 8 6 8 10 10 8 9 8 6 7 6 6 7 9 9 8 8 10 11 13 12 9 9
5 2 3 5 3 2 6 11 14 14 6 2 12 12 7 4 4 4 4 5 5 7 5 5 8 6 9 9 9 10 8 7 6 5 9 9 7 7 6 5 5 6 7 8 7 6 7 6 6 6 6 6 5 5 4 4 4 4 3 1 1 1 4 3 4 6 5 7 7 6 8 10 10 10 8 7 9 9 9 8 8 8 6 6 6 6 7 8 8 8 10 12 13 13 13 11 10
4 3 3 4 3 3 8 10 13 18 7 4 17 11 6 6 2 3 3 4 6 8 6 6 9 9 9 8 8 10 8 7 5 5 9 9 7 6 6 5 5 6 6 6 7 7 7 7 6 6 6 5 5 4 4 4 4 4 2 2 2 3 5 4 5 6 5 8 9 6 8 10 10 10 9 7 7 7 9 9 9 8 8 7 6 7 7 6 7 10 10 13 13 10 12 12 10
3 3 5 4 4 5 9 9 3 14 16 10 19 10 6 7 0 3 3 2 6 8 6 7 9 9 9 7 7 8 8 8 6 6 7 9 7 6 6 5 5 6 6 6 6 6 6 7 6 6 6 6 5 4 4 4 4 4 3 4 4 4 4 5 7 7 6 8 9 8 7 8 9 9 8 6 7 8 10 11 9 9 9 6 5 6 7 6 7 8 8 10 11 8 9 10 8
3 2 5 4 5 7 8 13 8 23 36 16 13 14 7 4 0 3 4 4 6 6 7 8 9 9 9 8 8 7 8 8 7 7 7 8 7 6 5 4 6 6 6 6 6 7 6 7 6 6 6 6 5 4 4 5 5 4 5 6 5 5 5 5 6 7 7 6 7 7 5 8 10 8 7 8 8 9 10 11 9 8 9 6 5 5 6 6 6 7 5 5 7 7 6 7 7
6 3 4 4 5 7 9 18 19 43 63 28 12 16 5 2 3 3 4 5 5 5 8 10 10 10 9 8 8 6 7 8 7 7 7 7 7 7 6 5 6 6 6 6 6 7 7 6 7 7 6 6 5 5 5 5 5 4 6 5 3 5 5 5 6 7 6 5 6 6 5 7 9 9 9 10 10 8 8 12 11 8 8 6 5 7 8 7 6 7 6 6 8 7 5 5 6
6 3 -1 4 5 7 13 16 20 44 59 29 11 9 0 4 4 3 4 4 5 4 6 8 8 9 9 9 7 5 6 7 7 7 7 7 7 6 5 6 6 6 6 6 7 7 7 6 7 7 6 6 5 5 4 4 4 4 5 5 4 5 6 6 7 7 5 6 7 6 6 6 7 8 8 9 10 8 5 9 11 8 9 7 4 7 10 10 9 7 7 8 10 8 7 7 7
3 3 -1 4 5 9 14 10 11 24 29 15 8 2 0 7 3 2 5 5 5 4 5 6 6 7 9 10 6 6 6 6 6 7 8 6 7 7 5 6 6 7 6 6 7 8 7 6 6 6 6 6 5 4 4 4 4 4 4 5 5 6 7 6 7 8 6 6 7 7 8 8 8 8 6 7 8 8 7 7 8 9 10 9 7 7 9 12 11 8 8 9 11 11 11 10 8
3 4 2 5 7 10 12 11 10 10 11 9 5 2 4 6 2 2 4 5 5 4 6 8 8 7 10 12 6 7 7 5 6 6 8 6 6 6 5 5 6 7 7 7 7 7 8 6 6 6 6 5 5 5 4 4 5 5 5 5 6 6 7 7 7 7 6 6 7 7 8 7 7 8 8 8 8 8 9 8 8 9 8 7 8 7 6 9 10 9 10 11 12 12 12 11 9
3 4 2 5 8 9 11 13 12 5 5 6 3 4 5 6 4 2 3 6 5 5 6 8 11 8 10 12 5 6 8 5 5 6 7 6 5 6 5 5 6 6 6 7 6 7 8 7 6 6 6 6 5 5 4 5 5 5 6 6 6 6 6 9 8 7 7 6 6 8 10 7 6 9 7 7 7 7 8 7 8 8 8 8 8 8 6 8 9 9 11 10 9 10 10 9 8
3 5 4 5 3 6 12 10 8 4 3 4 4 6 6 6 4 2 4 5 5 5 7 8 9 7 9 10 5 7 10 6 5 6 6 6 6 5 4 5 5 6 6 7 6 6 7 7 6 6 6 6 5 5 5 5 5 5 6 5 6 6 6 8 8 8 7 5 5 8 11 9 8 10 6 6 7 7 8 7 8 9 10 9 8 9 7 7 9 9 10 9 8 9 8 7 7
1 3 4 7 4 6 9 10 14 6 1 3 2 4 3 2 1 2 4 3 5 5 8 11 8 5 8 9 7 10 10 7 7 7 6 6 7 5 4 5 5 6 6 6 6 6 7 7 6 6 6 6 6 5 5 5 5 5 6 6 6 6 6 5 6 7 7 6 7 7 8 8 9 10 6 6 8 8 6 7 8 9 12 12 10 10 7 9 10 9 9 11 11 9 9 9 8
1 1 5 9 6 7 6 8 16 5 -3 0 2 5 1 -1 2 3 4 3 5 4 7 14 9 4 8 10 10 11 9 7 8 7 7 7 8 7 5 5 5 6 6 5 6 6 7 8 6 6 5 6 6 6 6 5 5 6 6 6 5 5 5 4 5 6 5 6 9 8 7 8 8 10 8 5 8 8 5 6 8 8 10 9 8 8 7 8 6 7 11 13 13 10 10 12 10
4 1 3 9 6 9 11 7 13 12 4 -0 4 8 -0 1 3 2 7 5 3 4 6 15 14 4 4 10 9 9 7 6 7 7 7 8 9 8 6 6 5 6 6 5 6 6 7 8 7 6 5 5 6 6 6 6 6 7 6 5 5 4 5 5 4 6 6 6 8 8 7 7 8 10 9 5 7 8 5 6 7 6 8 6 7 10 9 8 5 8 12 10 13 14 13 14 14
6 3 2 7 4 8 14 8 10 14 9 2 4 7 0 1 2 2 10 5 4 8 4 11 17 9 4 8 8 7 7 6 6 6 7 8 8 8 6 6 6 6 6 6 6 6 7 7 7 6 6 5 5 6 6 6 7 7 6 4 5 4 5 4 4 5 7 7 7 7 7 7 8 10 10 7 6 8 7 6 6 6 8 9 11 14 13 12 10 9 9 6 8 11 11 12 13
5 5 5 5 2 3 7 9 10 8 11 10 3 6 6 4 1 2 7 4 5 10 4 3 12 14 6 6 9 7 7 8 6 5 6 7 7 7 6 5 6 7 7 6 6 7 7 7 7 6 6 6 6 6 6 7 7 6 5 5 5 5 5 4 4 5 7 7 7 7 7 7 9 10 10 9 7 7 7 6 6 5 7 8 9 9 11 13 13 11 10 7 7 8 9 10 10
5 4 6 5 2 0 -1 5 9 8 19 18 4 7 8 2 3 1 5 6 4 7 7 3 7 14 8 6 9 7 7 9 6 5 6 8 8 7 7 6 6 7 7 7 7 7 7 7 6 7 6 7 7 7 7 7 6 5 5 5 5 5 6 6 5 6 6 6 6 7 8 8 8 10 11 10 9 8 8 7 7 5 5 6 7 6 7 9 11 11 10 9 9 9 10 9 8
6 2 7 7 4 0 -2 1 6 12 22 15 4 10 7 -1 6 4 3 7 5 6 8 5 7 11 9 7 8 8 8 9 7 6 7 8 9 8 7 6 6 7 7 7 8 8 8 7 7 7 7 7 7 7 8 6 6 5 4 5 5 6 7 7 7 6 6 6 6 7 8 9 8 10 11 10 9 8 8 8 7 6 5 6 7 6 5 6 7 8 8 8 8 8 9 8 7
7 4 6 8 7 3 -0 -2 2 13 17 12 5 9 9 -2 2 4 4 7 6 7 7 6 9 9 8 7 7 9 7 7 7 5 6 7 8 8 7 7 6 6 7 7 8 8 8 8 8 8 8 7 7 7 6 5 5 4 4 5 6 7 7 7 7 7 7 6 7 8 9 10 9 10 10 9 9 8 8 8 7 6 6 6 6 6 6 5 6 7 8 8 7 7 7 7 6
7 6 5 6 9 7 4 -1 2 8 10 18 13 9 12 1 -2 4 4 6 6 8 6 6 10 9 7 7 6 8 6 5 6 4 4 7 7 8 7 7 6 6 7 7 7 8 8 8 8 8 8 7 7 6 5 4 5 4 5 6 6 7 7 6 6 7 7 6 7 8 9 9 9 10 10 9 9 8 8 8 8 6 5 6 7 7 7 6 6 6 8 9 8 7 7 7 6
5 5 4 3 7 7 7 3 2 3 5 19 20 16 17 3 -1 5 2 5 7 8 7 5 9 10 7 7 6 7 8 5 5 5 5 6 7 8 7 6 6 6 6 7 7 8 8 9 8 7 6 6 6 5 4 4 4 5 6 7 7 7 6 5 7 7 6 5 6 8 9 10 10 10 10 10 9 9 9 9 8 6 4 6 7 8 8 7 7 6 7 8 8 7 6 7 7
5 3 -0 1 9 7 4 5 4 1 2 11 18 22 20 4 2 5 3 5 7 9 8 4 8 11 8 6 5 7 9 5 5 8 6 7 8 8 8 6 6 6 6 7 8 8 9 9 8 5 4 5 5 5 4 4 4 5 6 7 8 7 6 6 6 7 6 5 6 7 8 10 11 10 10 10 10 10 10 9 8 6 3 5 6 7 7 7 7 6 7 8 8 7 6 6 7
5 4 -1 -1 9 8 2 6 7 3 2 6 14 21 16 7 7 5 3 4 6 9 8 5 6 11 11 6 4 7 9 7 7 9 8 7 7 7 8 7 7 6 6 7 7 8 9 8 7 5 5 4 5 5 4 5 5 6 6 6 7 6 6 6 6 6 7 7 7 8 8 10 10 10 10 10 11 11 10 9 8 6 4 3 5 5 5 6 7 7 6 7 7 7 6 6 6
6 5 2 -3 5 9 3 4 8 5 1 3 11 17 10 8 10 4 3 4 4 8 8 8 5 8 13 7 4 5 7 9 9 9 8 8 8 8 8 6 6 6 6 6 7 8 7 8 7 6 6 6 5 4 5 6 7 7 6 5 6 6 6 5 6 7 8 9 8 8 8 9 10 10 10 10 11 11 10 10 9 7 5 3 3 3 4 4 6 7 6 6 6 7 7 6 6
8 6 2 -3 1 9 6 4 9 6 1 0 5 12 10 14 14 3 2 3 4 8 7 9 6 6 12 9 6 5 5 7 10 10 8 8 8 7 7 6 6 6 6 6 6 7 7 7 7 7 6 5 4 4 5 7 7 7 5 6 7 6 6 6 6 6 7 9 8 7 9 9 9 10 10 11 11 11 10 10 9 8 6 4 3 3 4 5 5 7 7 6 6 6 6 5 5
10 3 2 3 -1 3 12 8 5 6 6 3 2 12 18 20 14 1 2 4 4 7 6 10 9 5 10 11 7 6 5 4 8 12 9 8 8 6 7 7 7 6 6 7 6 7 7 8 8 7 6 4 4 4 5 7 7 7 6 7 8 6 6 6 5 5 6 9 8 7 9 8 9 10 10 11 11 11 10 10 9 8 7 5 4 4 4 6 7 7 7 8 6 5 5 5 4
13 2 1 9 -1 -5 13 13 4 5 8 5 5 19 29 23 10 2 4 3 3 6 4 10 12 6 7 10 8 5 4 3 7 12 9 7 7 5 7 8 7 6 6 7 7 7 7 9 8 5 4 4 4 4 4 6 7 6 7 7 8 6 6 5 5 6 7 9 9 9 9 8 8 9 9 9 10 10 10 9 9 8 7 6 5 4 5 6 9 9 8 8 8 6 5 4 4
15 7 -0 9 3 -6 4 9 7 6 5 9 11 22 34 25 8 4 6 3 3 5 4 10 12 7 6 9 10 6 3 4 7 9 8 7 6 6 7 7 7 6 6 7 6 7 8 8 7 4 4 3 3 4 5 6 7 6 7 7 7 6 5 5 6 6 7 9 10 9 8 7 7 7 7 8 9 10 9 9 9 8 8 7 6 5 5 6 8 9 8 8 8 8 6 5 4
10 9 3 6 5 2 4 3 4 4 4 10 14 19 28 24 10 7 8 2 4 6 4 10 10 7 6 8 12 8 3 4 6 7 7 7 6 7 7 6 7 7 6 8 7 7 8 7 6 4 3 3 3 5 6 7 7 6 7 7 6 6 6 6 6 5 7 9 9 8 7 7 7 7 7 7 8 9 9 9 9 9 8 8 7 6 5 6 7 7 8 9 9 9 7 6 5
13 11 6 3 3 5 7 2 -1 2 3 7 15 17 17 17 10 8 7 2 5 7 3 6 8 8 8 7 11 11 5 4 6 7 7 7 6 7 7 6 7 8 6 7 7 8 8 6 5 4 3 3 4 6 7 8 8 7 8 7 6 6 6 6 5 5 6 7 8 8 6 7 7 7 7 7 8 8 9 9 8 9 9 8 7 6 5 5 5 6 8 10 11 11 10 7 5
17 13 3 -0 4 6 6 2 -1 6 3 1 13 17 13 14 12 6 5 4 5 6 3 3 4 5 8 8 10 13 9 5 5 6 7 7 7 6 6 7 7 7 6 6 7 7 7 6 5 4 3 4 6 7 8 9 10 9 8 7 6 6 6 6 6 5 6 7 8 7 6 7 6 7 7 7 8 8 9 10 9 9 9 8 7 6 5 4 4 6 8 9 10 11 11 10 8
14 13 3 -0 6 4 6 3 -1 7 4 -0 7 10 7 14 23 15 2 5 8 4 4 3 3 3 6 10 11 12 12 8 6 6 7 7 8 7 5 6 7 7 7 6 7 6 6 6 5 4 4 5 7 9 10 10 11 10 9 7 5 5 6 5 6 6 6 7 6 6 6 6 6 6 7 7 8 9 9 10 10 10 9 9 8 6 4 3 4 6 7 7 7 8 10 11 10
11 14 5 3 7 2 7 6 -1 4 4 2 4 4 2 8 31 28 -0 1 9 4 3 3 4 4 4 9 10 10 10 9 7 6 7 7 7 7 5 5 7 6 7 7 7 6 5 6 5 5 6 6 8 9 10 10 10 10 9 6 4 5 6 6 7 6 6 6 6 6 6 5 6 5 6 7 7 8 9 9 10 11 10 10 8 7 5 4 3 5 6 6 5 5 7 8 9
8 14 4 2 9 1 5 7 1 4 4 3 3 6 7 6 30 35 3 -2 4 -2 1 3 4 4 4 11 10 8 8 7 8 6 5 7 6 7 6 5 6 5 6 7 6 6 5 5 5 6 8 8 9 9 9 9 10 9 7 5 4 5 5 6 8 6 5 5 5 5 6 5 5 5 5 6 6 8 8 9 9 10 10 9 9 8 6 4 4 4 5 4 4 4 4 6 6
4 13 6 3 9 2 2 4 1 6 5 3 4 7 12 6 15 21 4 2 5 -0 2 4 4 4 6 10 8 10 12 8 8 7 4 5 5 7 7 5 5 5 6 6 6 6 5 5 6 8 9 10 9 9 8 8 9 9 6 5 6 6 6 8 9 7 5 5 5 5 5 5 5 5 5 5 6 7 7 8 8 9 10 9 9 8 7 5 4 4 4 3 4 4 4 6 6
0 9 10 7 9 4 3 1 -1 7 7 5 3 0 13 14 6 6 2 4 7 5 6 5 3 5 8 7 3 7 12 12 11 9 7 5 4 6 6 6 5 4 5 5 5 6 5 6 7 8 9 9 8 7 7 8 8 8 6 5 6 6 6 8 8 8 7 5 5 5 5 5 5 4 5 5 5 6 6 7 7 8 8 9 9 8 8 7 7 6 6 7 8 8 8 8 8
-1 6 11 9 8 6 5 -0 -2 6 7 7 2 -8 6 18 8 6 5 3 7 6 5 7 5 4 9 8 4 3 7 13 15 11 8 7 5 5 5 6 5 5 5 4 5 6 4 5 7 8 9 8 7 7 7 7 8 8 7 6 6 6 6 6 7 8 8 6 5 4 5 5 5 5 5 4 4 5 5 6 7 7 7 7 8 8 9 9 9 9 9 10 10 11 11 11 11
0 4 10 8 7 8 6 1 -0 5 3 3 4 -5 1 13 7 6 8 5 9 8 5 11 10 1 5 10 7 4 3 9 16 15 11 8 6 5 4 5 5 5 5 5 5 5 5 5 6 8 9 7 6 7 8 7 8 10 9 8 7 6 5 5 6 6 7 7 5 4 5 5 5 5 5 4 4 4 4 5 6 7 7 6 6 7 8 8 8 8 8 8 8 8 9 9 9
5 4 6 6 9 8 6 4 1 2 1 1 6 -0 -2 9 8 1 7 10 9 9 8 10 10 3 2 6 7 8 6 4 10 16 14 11 8 5 3 3 5 6 4 4 6 5 5 6 6 7 8 7 6 7 9 8 9 11 10 9 8 6 5 5 5 5 7 6 5 5 4 5 5 5 5 5 5 5 4 5 5 6 6 6 6 5 6 6 6 6 6 6 6 6 6 6 6
12 10 6 4 8 8 6 7 6 3 0 2 7 2 -8 4 13 2 4 10 6 7 9 7 8 7 3 1 2 7 9 3 3 10 13 14 13 8 4 2 5 7 5 4 5 5 6 6 6 7 7 7 7 7 8 8 9 10 10 10 8 6 5 5 5 5 6 5 5 5 4 4 5 5 6 5 5 5 5 5 4 4 5 5 6 5 4 5 5 5 5 6 6 6 6 6 5
14 14 10 5 4 7 6 5 7 7 4 3 5 3 -7 -2 9 6 3 6 5 5 7 7 7 6 6 5 1 3 10 7 2 4 8 11 14 13 9 5 4 5 6 6 5 4 5 6 6 6 6 7 7 7 7 8 10 9 9 9 7 7 6 5 5 5 5 5 4 4 4 5 6 7 7 8 8 7 6 5 4 4 5 4 5 5 5 4 4 4 4 5 5 5 5 5 5
10 12 15 12 5 4 6 5 6 7 6 7 5 1 1 0 -0 2 4 3 3 3 1 2 4 4 5 6 3 2 6 7 2 1 3 6 10 13 14 11 7 5 6 7 6 4 4 5 6 6 5 6 7 8 7 8 10 9 8 9 7 6 6 5 5 5 4 4 4 4 5 7 8 8 8 9 10 9 8 8 6 5 5 4 4 5 5 5 4 3 3 3 4 4 4 4 5
9 9 11 15 12 7 5 3 4 5 4 10 10 2 2 4 -1 0 4 0 -1 1 -1 -0 2 3 6 8 7 5 3 2 3 2 2 2 5 8 12 15 13 9 7 6 6 6 4 4 5 6 5 5 6 8 8 8 9 8 7 7 6 6 7 6 5 4 3 3 3 4 5 7 8 7 7 7 8 9 9 9 9 8 7 5 5 5 5 5 5 4 4 3 3 3 4 4 4
9 10 8 9 14 15 14 12 8 3 1 7 12 8 5 6 3 1 2 0 -0 1 -0 2 4 4 6 9 10 9 7 5 5 4 2 2 3 3 6 11 13 14 11 7 6 6 6 4 5 6 5 5 6 7 7 8 8 8 7 7 6 7 7 7 6 4 3 2 4 4 4 4 5 5 5 5 6 6 6 8 8 9 9 8 7 7 6 6 6 5 4 4 3 4 4 4 4
6 9 10 5 7 8 8 18 22 9 1 6 9 9 8 8 6 3 1 0 0 0 -1 1 4 5 6 7 8 10 11 8 6 5 4 4 4 3 4 5 7 13 14 11 7 6 7 6 5 6 5 5 6 6 7 8 8 7 7 7 6 7 7 7 6 5 3 3 3 4 4 4 5 6 6 6 6 6 6 6 6 7 8 9 9 9 8 8 8 7 6 5 5 4 4 4 4
5 8 10 6 9 7 -5 4 23 15 2 8 13 7 4 7 8 5 2 1 -0 -2 1 5 5 5 5 5 7 10 10 8 7 6 6 6 5 5 6 4 3 7 13 13 10 8 7 6 5 6 5 5 5 6 7 7 7 6 7 7 7 7 7 7 7 5 4 4 4 4 4 5 5 6 7 7 7 7 7 7 7 7 7 8 8 8 8 8 8 8 8 8 7 6 6 6 6
7 8 7 5 8 12 4 2 16 18 6 9 17 11 3 5 11 9 2 4 4 -2 -0 9 10 8 7 5 7 8 7 8 9 8 7 6 4 4 6 7 5 4 8 10 10 9 7 6 5 5 5 5 4 5 6 6 6 6 6 6 7 7 7 7 7 6 5 5 5 5 5 6 6 6 7 8 8 9 8 8 7 7 7 8 8 8 8 8 7 7 9 10 10 10 9 8 8
6 2 4 8 5 7 9 4 9 16 10 7 12 12 9 6 8 10 6 3 5 2 -1 2 2 2 4 4 7 8 8 9 10 9 7 5 6 6 5 8 9 6 6 8 9 9 7 5 5 5 5 5 4 5 6 6 5 5 5 6 7 7 7 7 7 6 6 6 5 6 6 6 6 6 7 8 9 10 10 9 8 7 7 7 9 9 8 8 8 8 9 10 11 12 11 10 9
6 5 5 8 6 5 8 5 6 11 11 14 13 7 11 14 7 7 9 5 3 3 2 -2 -6 -3 4 5 6 7 7 8 9 9 9 7 7 6 4 6 10 9 7 7 9 10 9 6 4 4 4 4 4 5 5 5 5 5 5 5 7 7 7 7 7 6 5 5 6 6 6 6 5 6 7 8 9 10 11 11 10 9 7 7 9 10 9 9 9 8 9 10 11 11 11 10 10
6 7 5 5 6 5 5 4 3 -1 -1 15 28 17 8 12 11 7 9 10 7 4 3 -2 -4 1 9 8 5 6 7 7 8 10 10 9 7 6 6 5 9 12 8 5 9 12 10 8 5 4 4 4 3 4 4 5 5 5 6 6 6 6 7 7 6 6 5 5 6 6 6 6 5 5 6 7 9 10 11 12 12 11 9 8 8 9 10 9 9 9 9 8 9 10 10 10 11
8 6 5 7 6 5 6 9 13 7 -11 -12 15 33 19 8 11 11 8 10 10 8 7 3 1 7 12 10 5 5 5 5 7 10 13 16 12 6 5 4 8 14 11 6 9 13 12 11 8 4 3 4 4 3 3 4 5 5 5 6 6 5 6 7 6 5 6 5 6 7 6 5 4 4 5 6 7 9 9 10 11 12 11 9 8 9 10 10 9 9 9 7 6 7 8 10 10
Height
5901 5901 5901 5901 5901 5901 5901 5900 5901 5901 5902 5902 5903 5903 5903 5903 5904 5904 5905 5905 5905 5905 5905 5906 5906 5905 5905 5904 5904 5904 5904 5905 5905 5905 5906 5906 5906 5906 5906 5906 5906 5907 5907 5907 5908 5908 5908 5908 5909 5910 5910 5911 5912 5913 5913 5913 5914 5914 5914 5915 5915 5915 5915 5916 5916 5917 5918 5918 5919 5919 5920 5919 5918 5917 5917 5918 5917 5916 5916 5916 5916 5915 5915 5915 5915 5916 5916 5916 5916 5916 5916 5917 5917 5916 5917 5916 5916
5901 5901 5902 5901 5901 5901 5901 5901 5901 5902 5902 5903 5903 5903 5903 5904 5904 5905 5905 5906 5906 5906 5906 5906 5906 5906 5905 5905 5904 5905 5905 5905 5906 5906 5906 5906 5906 5906 5907 5908 5908 5908 5908 5908 5908 5908 5909 5909 5910 5911 5911 5911 5912 5912 5913 5913 5914 5915 5916 5916 5916 5916 5916 5917 5917 5918 5918 5918 5919 5920 5920 5920 5919 5918 5918 5918 5917 5917 5916 5916 5916 5916 5916 5916 5916 5916 5916 5916 5916 5916 5917 5917 5917 5917 5917 5917 5917
5901 5901 5902 5902 5902 5902 5901 5901 5902 5902 5903 5903 5903 5903 5903 5904 5905 5905 5906 5906 5906 5906 5906 5906 5906 5906 5905 5905 5905 5905 5905 5905 5906 5907 5907 5907 5907 5907 5907 5908 5908 5909 5909 5909 5910 5910 5910 5911 5911 5911 5911 5911 5911 5912 5913 5914 5915 5916 5917 5917 5917 5917 5917 5918 5918 5919 5919 5919 5919 5919 5920 5921 5920 5918 5918 5919 5918 5917 5916 5916 5916 5917 5917 5916 5916 5916 5917 5916 5916 5917 5917 5917 5917 5917 5918 5918 5918
5901 5901 5902 5902 5902 5902 5902 5901 5902 5902 5902 5902 5903 5903 5904 5904 5905 5906 5906 5906 5907 5907 5907 5906 5906 5906 5906 5905 5905 5905 5906 5906 5907 5907 5908 5908 5908 5908 5908 5909 5909 5910 5910 5911 5911 5912 5912 5911 5911 5912 5912 5912 5913 5914 5915 5916 5917 5918 5918 5918 5918 5918 5918 5919 5919 5919 5919 5919 5918 5919 5921 5922 5920 5918 5918 5919 5919 5918 5918 5917 5917 5918 5917 5917 5917 5917 5917 5917 5917 5917 5917 5918 5918 5918 5919 5919 5919
5901 5901 5901 5902 5901 5901 5901 5901 5901 5902 5901 5901 5902 5903 5904 5905 5905 5907 5907 5906 5907 5907 5907 5907 5906 5906 5906 5906 5906 5906 5906 5907 5908 5908 5908 5909 5909 5909 5909 5910 5910 5911 5911 5912 5912 5913 5912 5912 5913 5914 5914 5915 5916 5917 5918 5918 5918 5918 5919 5919 5919 5919 5919 5920 5920 5919 5919 5919 5918 5918 5921 5922 5920 5918 5918 5919 5920 5920 5919 5919 5918 5918 5918 5918 5918 5918 5918 5918 5918 5918 5919 5919 5919 5919 5920 5920 5920
5900 5901 5901 5901 5901 5901 5901 5901 5901 5901 5901 5901 5901 5903 5904 5905 5906 5907 5907 5907 5907 5907 5907 5907 5907 5907 5907 5907 5907 5907 5907 5908 5908 5909 5909 5909 5910 5910 5910 5910 5911 5912 5913 5913 5913 5914 5914 5914 5915 5915 5916 5917 5918 5918 5918 5919 5919 5919 5919 5919 5919 5920 5920 5921 5920 5920 5920 5919 5918 5918 5921 5923 5922 5919 5918 5919 5920 5921 5921 5920 5919 5919 5920 5920 5919 5919 5919 5919 5919 5919 5920 5920 5920 5920 5921 5921 5921
5900 5900 5901 5901 5901 5901 5901 5901 5901 5901 5901 5901 5901 5902 5903 5904 5906 5907 5907 5907 5907 5908 5908 5908 5908 5907 5907 5907 5907 5907 5908 5908 5909 5910 5910 5910 5911 5911 5910 5911 5911 5912 5913 5913 5914 5914 5915 5916 5916 5916 5916 5917 5918 5918 5918 5919 5919 5920 5920 5921 5921 5921 5921 5921 5921 5921 5921 5920 5918 5918 5921 5924 5923 5920 5918 5919 5921 5922 5921 5921 5921 5921 5921 5921 5921 5920 5921 5921 5921 5921 5921 5921 5921 5921 5922 5922 5922
5900 5900 5900 5900 5900 5900 5900 5900 5900 5900 5901 5901 5901 5901 5903 5904 5905 5907 5907 5907 5907 5908 5908 5908 5908 5908 5908 5908 5908 5908 5908 5909 5909 5910 5911 5912 5912 5912 5911 5911 5912 5913 5914 5914 5915 5915 5915 5915 5916 5916 5917 5918 5918 5919 5919 5919 5920 5921 5921 5922 5922 5922 5922 5922 5922 5922 5921 5921 5919 5919 5921 5923 5924 5922 5920 5920 5921 5922 5922 5922 5922 5921 5921 5922 5922 5922 5922 5922 5923 5923 5922 5922 5922 5922 5923 5923 5923
5900 5900 5900 5900 5900 5900 5899 5899 5899 5900 5900 5901 5901 5901 5902 5904 5905 5906 5907 5907 5908 5908 5908 5909 5908 5908 5909 5908 5908 5909 5909 5910 5910 5911 5912 5913 5912 5913 5912 5912 5913 5914 5915 5915 5916 5916 5916 5916 5917 5917 5918 5918 5919 5919 5920 5920 5921 5921 5922 5923 5923 5922 5923 5924 5923 5923 5923 5923 5921 5920 5920 5922 5924 5923 5922 5921 5922 5923 5923 5923 5923 5922 5922 5923 5923 5923 5923 5924 5924 5924 5924 5923 5923 5923 5923 5924 5924
5900 5900 5900 5900 5900 5899 5898 5898 5899 5898 5899 5900 5900 5901 5902 5903 5905 5906 5907 5908 5908 5909 5909 5909 5909 5909 5910 5909 5909 5909 5910 5910 5911 5912 5913 5914 5913 5913 5913 5913 5914 5915 5916 5916 5917 5917 5917 5917 5917 5918 5919 5919 5920 5921 5921 5921 5922 5922 5923 5924 5924 5923 5925 5925 5925 5925 5925 5924 5923 5921 5920 5921 5923 5924 5924 5923 5922 5923 5924 5924 5924 5924 5924 5924 5925 5926 5926 5925 5925 5925 5925 5925 5925 5925 5925 5925 5925
5900 5900 5900 5900 5900 5898 5897 5898 5897 5896 5896 5898 5900 5901 5901 5903 5904 5906 5907 5908 5909 5909 5909 5910 5910 5910 5910 5910 5910 5910 5911 5911 5912 5913 5914 5914 5914 5914 5914 5914 5915 5916 5916 5917 5917 5917 5918 5918 5918 5919 5920 5921 5921 5922 5922 5923 5923 5923 5925 5926 5926 5925 5926 5926 5926 5926 5926 5925 5924 5923 5921 5920 5922 5924 5925 5924 5923 5924 5924 5925 5925 5925 5926 5926 5926 5927 5928 5927 5926 5926 5926 5926 5926 5926 5926 5927 5927
5900 5901 5900 5899 5899 5898 5897 5896 5895 5894 5893 5896 5898 5900 5901 5902 5904 5906 5907 5908 5909 5909 5910 5910 5910 5910 5910 5910 5911 5910 5911 5912 5913 5913 5914 5915 5915 5915 5915 5915 5916 5916 5917 5917 5918 5918 5919 5919 5920 5920 5921 5922 5923 5923 5924 5924 5924 5925 5926 5928 5927 5926 5926 5926 5927 5927 5927 5926 5926 5925 5922 5920 5921 5923 5925 5926 5925 5925 5925 5925 5925 5926 5926 5927 5927 5927 5928 5928 5928 5927 5927 5927 5927 5927 5928 5928 5928
5900 5901 5900 5899 5899 5899 5898 5896 5894 5891 5890 5894 5897 5899 5901 5903 5904 5906 5908 5909 5909 5910 5910 5910 5910 5910 5911 5911 5911 5911 5911 5912 5913 5914 5915 5915 5916 5916 5916 5916 5916 5917 5918 5918 5919 5919 5920 5920 5921 5922 5922 5923 5924 5925 5925 5926 5926 5927 5927 5928 5929 5928 5927 5927 5928 5928 5927 5927 5927 5926 5924 5922 5921 5922 5924 5926 5927 5927 5927 5927 5926 5926 5926 5927 5928 5928 5929 5929 5929 5928 5928 5928 5928 5928 5928 5929 5929
5900 5900 5899 5900 5899 5899 5898 5896 5894 5892 5891 5895 5898 5899 5902 5903 5905 5907 5908 5909 5909 5910 5910 5910 5910 5911 5911 5912 5912 5912 5912 5913 5913 5915 5916 5916 5916 5916 5916 5917 5917 5918 5919 5920 5920 5921 5921 5921 5922 5923 5924 5924 5925 5926 5927 5927 5928 5928 5928 5929 5930 5930 5929 5928 5928 5928 5928 5928 5928 5928 5927 5925 5924 5923 5923 5925 5927 5928 5929 5929 5927 5926 5926 5928 5929 5929 5930 5930 5930 5929 5928 5928 5929 5929 5929 5930 5930
5900 5900 5899 5900 5899 5899 5898 5897 5896 5895 5894 5897 5899 5901 5903 5904 5905 5907 5908 5909 5909 5910 5910 5910 5910 5911 5912 5913 5913 5912 5912 5913 5913 5915 5916 5917 5917 5917 5917 5918 5918 5919 5920 5921 5921 5922 5922 5923 5923 5924 5925 5926 5926 5927 5928 5928 5929 5929 5929 5929 5930 5931 5930 5929 5928 5928 5928 5929 5929 5929 5929 5928 5926 5925 5924 5924 5925 5927 5929 5929 5928 5926 5926 5928 5930 5930 5931 5931 5931 5930 5929 5929 5929 5929 5930 5930 5931
5899 5899 5899 5900 5899 5899 5899 5898 5898 5897 5897 5899 5901 5902 5904 5905 5906 5907 5908 5909 5909 5910 5910 5911 5911 5911 5912 5913 5913 5913 5912 5913 5913 5915 5917 5918 5918 5918 5918 5918 5919 5920 5921 5922 5923 5923 5923 5924 5925 5925 5926 5926 5927 5928 5929 5929 5930 5930 5931 5930 5930 5930 5931 5931 5931 5930 5929 5929 5930 5930 5931 5931 5929 5928 5926 5925 5924 5925 5928 5929 5928 5927 5927 5928 5929 5929 5930 5931 5931 5931 5931 5930 5930 5930 5930 5931 5931
5899 5899 5899 5899 5899 5899 5900 5899 5900 5899 5900 5901 5902 5903 5905 5906 5907 5907 5908 5909 5910 5910 5910 5911 5911 5911 5912 5913 5914 5914 5913 5913 5913 5915 5918 5919 5919 5919 5919 5919 5920 5921 5921 5922 5923 5924 5924 5925 5926 5926 5927 5927 5928 5929 5929 5930 5931 5931 5932 5931 5931 5931 5931 5932 5934 5932 5930 5929 5930 5930 5931 5931 5931 5930 5929 5928 5926 5926 5927 5929 5930 5930 5928 5928 5928 5928 5929 5930 5932 5932 5931 5931 5931 5931 5931 5931 5932
5899 5899 5899 5899 5899 5900 5900 5900 5900 5900 5901 5902 5903 5903 5905 5906 5906 5907 5908 5909 5910 5911 5911 5911 5911 5911 5912 5913 5915 5914 5913 5914 5914 5916 5918 5919 5920 5920 5920 5920 5921 5921 5922 5923 5924 5925 5926 5926 5927 5927 5928 5929 5929 5930 5931 5931 5932 5932 5933 5933 5932 5932 5932 5932 5934 5934 5932 5931 5931 5931 5931 5931 5931 5931 5930 5929 5928 5927 5926 5929 5932 5933 5931 5930 5930 5929 5929 5931 5932 5932 5932 5932 5932 5932 5932 5932 5933
5898 5898 5899 5898 5899 5900 5900 5900 5901 5901 5902 5902 5903 5904 5905 5905 5906 5907 5908 5909 5910 5911 5912 5911 5911 5911 5912 5913 5915 5915 5914 5914 5915 5917 5919 5920 5921 5921 5921 5921 5922 5922 5923 5924 5925 5926 5927 5928 5928 5929 5929 5930 5931 5931 5932 5932 5933 5933 5934 5934 5933 5933 5933 5933 5934 5934 5934 5934 5933 5932 5932 5932 5931 5931 5930 5930 5929 5928 5927 5928 5932 5934 5934 5934 5933 5932 5931 5932 5933 5933 5933 5933 5933 5933 5933 5933 5934
5897 5898 5898 5898 5899 5899 5899 5900 5901 5902 5902 5902 5903 5904 5905 5905 5906 5907 5909 5910 5911 5911 5912 5912 5912 5911 5912 5913 5916 5916 5915 5915 5916 5918 5919 5921 5921 5922 5922 5922 5922 5923 5924 5925 5925 5926 5928 5929 5929 5930 5930 5931 5932 5933 5933 5934 5934 5935 5935 5935 5934 5934 5934 5934 5934 5934 5934 5935 5935 5934 5934 5933 5933 5932 5932 5931 5931 5930 5929 5929 5931 5934 5936 5937 5936 5935 5935 5934 5933 5933 5933 5934 5934 5934 5934 5934 5935
5897 5898 5897 5897 5898 5899 5899 5900 5901 5902 5903 5903 5904 5904 5905 5905 5906 5908 5909 5910 5911 5912 5912 5913 5913 5912 5912 5913 5915 5917 5916 5916 5917 5919 5920 5921 5922 5922 5923 5923 5923 5924 5925 5925 5926 5927 5928 5929 5930 5931 5932 5932 5933 5934 5934 5935 5935 5936 5936 5936 5935 5935 5935 5935 5935 5934 5934 5935 5935 5935 5935 5935 5935 5935 5934 5933 5933 5932 5931 5931 5931 5933 5935 5936 5937 5937 5937 5936 5934 5933 5933 5934 5934 5935 5935 5936 5936
5896 5897 5896 5897 5898 5899 5899 5900 5901 5903 5904 5904 5904 5905 5905 5905 5907 5908 5910 5911 5912 5912 5912 5913 5914 5913 5913 5913 5915 5917 5916 5917 5918 5919 5921 5922 5922 5923 5923 5924 5924 5925 5925 5926 5927 5928 5929 5930 5931 5932 5932 5933 5934 5934 5935 5936 5936 5937 5937 5937 5937 5937 5937 5936 5936 5936 5936 5936 5935 5935 5936 5936 5936 5936 5936 5936 5935 5935 5933 5932 5932 5932 5933 5934 5935 5936 5937 5936 5935 5935 5936 5936 5936 5936 5936 5937 5937
5895 5895 5896 5897 5898 5899 5899 5900 5901 5902 5903 5903 5904 5904 5905 5906 5907 5909 5910 5911 5912 5913 5913 5913 5914 5914 5914 5914 5915 5917 5917 5917 5919 5920 5921 5922 5923 5923 5924 5924 5925 5926 5926 5927 5928 5929 5930 5931 5932 5933 5933 5934 5934 5935 5936 5937 5937 5938 5938 5938 5938 5938 5938 5938 5938 5937 5937 5937 5936 5936 5937 5937 5937 5938 5938 5938 5937 5937 5935 5934 5933 5933 5933 5933 5933 5934 5935 5935 5937 5938 5938 5938 5938 5937 5938 5938 5938
5894 5895 5895 5896 5897 5899 5899 5900 5901 5901 5901 5902 5903 5904 5905 5905 5907 5909 5910 5911 5912 5913 5913 5914 5914 5914 5915 5916 5916 5917 5918 5918 5919 5921 5922 5923 5924 5924 5924 5925 5926 5927 5927 5928 5929 5930 5931 5932 5932 5933 5934 5935 5935 5936 5937 5937 5938 5939 5939 5939 5939 5939 5939 5939 5939 5938 5938 5938 5938 5938 5938 5938 5938 5939 5939 5939 5939 5938 5938 5937 5936 5935 5934 5934 5933 5934 5934 5935 5937 5938 5938 5939 5939 5939 5940 5940 5940
5893 5894 5895 5896 5897 5898 5899 5900 5901 5900 5901 5902 5903 5904 5905 5905 5907 5909 5910 5911 5912 5912 5914 5914 5914 5914 5915 5917 5917 5918 5919 5919 5920 5921 5922 5924 5924 5925 5925 5926 5927 5928 5928 5929 5930 5931 5932 5933 5934 5934 5935 5936 5936 5937 5938 5938 5939 5940 5940 5940 5940 5940 5940 5940 5940 5940 5939 5939 5939 5939 5939 5939 5939 5939 5940 5940 5940 5940 5940 5939 5938 5937 5937 5936 5935 5935 5935 5936 5937 5938 5938 5939 5939 5940 5941 5942 5942
5892 5893 5894 5895 5897 5898 5899 5900 5900 5900 5901 5902 5903 5904 5905 5905 5907 5909 5910 5911 5911 5912 5913 5914 5914 5914 5915 5917 5918 5918 5919 5920 5921 5921 5922 5924 5925 5925 5926 5927 5927 5928 5929 5930 5931 5932 5933 5934 5935 5935 5936 5937 5937 5938 5939 5939 5940 5940 5941 5941 5942 5942 5942 5942 5942 5941 5941 5941 5940 5940 5940 5940 5940 5940 5941 5941 5941 5941 5942 5941 5941 5940 5940 5939 5938 5938 5938 5938 5939 5939 5939 5940 5940 5941 5942 5943 5944
5891 5892 5894 5895 5896 5897 5899 5900 5900 5900 5901 5902 5903 5904 5904 5905 5907 5908 5909 5910 5911 5912 5913 5914 5914 5915 5916 5917 5918 5919 5920 5921 5921 5921 5922 5923 5925 5925 5926 5927 5928 5929 5930 5931 5932 5933 5934 5935 5936 5936 5937 5938 5938 5939 5940 5940 5941 5941 5942 5942 5942 5943 5943 5943 5943 5943 5942 5942 5942 5941 5941 5941 5941 5941 5941 5942 5942 5942 5943 5943 5943 5943 5943 5942 5941 5941 5941 5941 5941 5941 5941 5942 5942 5943 5944 5945 5946
5890 5892 5893 5894 5895 5897 5898 5899 5900 5900 5901 5901 5902 5903 5903 5904 5906 5907 5909 5910 5911 5912 5913 5914 5915 5915 5916 5917 5918 5919 5920 5921 5922 5922 5922 5923 5924 5925 5926 5927 5928 5929 5931 5932 5933 5934 5935 5936 5937 5937 5938 5939 5940 5940 5941 5941 5942 5942 5942 5943 5943 5943 5944 5944 5944 5944 5944 5943 5943 5943 5943 5942 5942 5942 5942 5942 5943 5943 5944 5945 5945 5945 5945 5945 5944 5944 5944 5943 5943 5944 5944 5945 5945 5946 5947 5947 5948
5889 5891 5892 5894 5895 5896 5897 5898 5899 5900 5900 5901 5901 5902 5903 5904 5905 5907 5908 5910 5911 5912 5913 5914 5915 5916 5916 5917 5918 5919 5920 5921 5922 5923 5923 5924 5925 5926 5926 5927 5928 5930 5931 5932 5934 5935 5936 5937 5938 5938 5939 5940 5940 5941 5942 5942 5943 5943 5943 5944 5944 5944 5945 5945 5945 5945 5945 5944 5944 5944 5944 5944 5944 5943 5943 5943 5944 5944 5945 5946 5946 5947 5947 5947 5946 5946 5946 5946 5946 5946 5947 5947 5948 5948 5949 5949 5950
5888 5890 5891 5893 5894 5895 5896 5897 5898 5899 5899 5900 5901 5902 5903 5904 5905 5907 5908 5910 5911 5912 5914 5914 5915 5916 5917 5917 5918 5919 5920 5922 5923 5924 5924 5925 5926 5927 5927 5928 5929 5930 5931 5933 5934 5935 5936 5937 5938 5939 5940 5941 5941 5942 5943 5943 5944 5944 5944 5944 5945 5945 5945 5946 5946 5946 5946 5946 5945 5945 5945 5945 5945 5945 5945 5945 5945 5945 5946 5947 5947 5948 5948 5949 5949 5949 5948 5949 5949 5949 5949 5950 5950 5950 5951 5951 5952
5886 5888 5891 5892 5894 5894 5895 5896 5897 5898 5899 5899 5900 5901 5902 5903 5905 5907 5908 5910 5911 5912 5913 5914 5915 5916 5917 5917 5918 5919 5920 5921 5924 5925 5925 5926 5927 5928 5928 5929 5929 5930 5932 5933 5935 5936 5937 5938 5939 5940 5941 5942 5942 5943 5943 5944 5945 5945 5945 5945 5945 5946 5946 5946 5947 5947 5947 5947 5947 5946 5946 5946 5946 5946 5946 5946 5946 5946 5947 5947 5948 5949 5950 5950 5950 5951 5951 5951 5951 5951 5951 5952 5952 5952 5953 5953 5954
5886 5888 5890 5891 5892 5893 5894 5895 5896 5897 5898 5899 5900 5901 5902 5903 5904 5906 5908 5909 5911 5912 5913 5914 5915 5916 5917 5917 5918 5919 5920 5921 5923 5925 5926 5926 5927 5928 5929 5930 5930 5931 5932 5934 5935 5937 5938 5939 5940 5941 5942 5942 5943 5943 5944 5945 5945 5945 5946 5946 5946 5946 5947 5947 5947 5948 5948 5948 5948 5948 5947 5947 5947 5947 5947 5947 5947 5947 5948 5949 5949 5950 5951 5952 5952 5952 5953 5953 5953 5953 5954 5954 5954 5955 5955 5956 5956
5885 5886 5888 5890 5891 5892 5893 5894 5895 5896 5897 5898 5899 5899 5900 5902 5903 5905 5907 5909 5910 5911 5912 5913 5914 5915 5916 5917 5918 5919 5920 5920 5922 5924 5926 5926 5927 5928 5929 5930 5931 5932 5933 5934 5936 5937 5938 5939 5940 5941 5942 5943 5944 5944 5945 5945 5946 5946 5946 5946 5947 5947 5947 5948 5948 5949 5949 5949 5949 5950 5949 5949 5949 5948 5948 5948 5948 5949 5949 5950 5951 5951 5952 5953 5954 5954 5954 5955 5955 5956 5956 5956 5956 5957 5957 5958 5959
5884 5885 5887 5888 5889 5891 5892 5892 5894 5895 5896 5897 5897 5898 5899 5900 5902 5903 5906 5908 5909 5910 5912 5913 5914 5915 5916 5916 5917 5919 5919 5920 5921 5923 5925 5926 5927 5928 5930 5931 5932 5933 5934 5935 5936 5937 5939 5940 5941 5942 5943 5944 5944 5945 5945 5946 5946 5946 5947 5947 5947 5948 5948 5948 5949 5950 5950 5950 5950 5951 5950 5950 5950 5949 5949 5950 5950 5950 5951 5951 5952 5952 5953 5954 5955 5955 5956 5956 5957 5957 5958 5958 5958 5959 5959 5960 5961
5883 5884 5886 5887 5888 5889 5889 5890 5893 5894 5895 5896 5896 5897 5898 5899 5900 5902 5905 5907 5908 5909 5911 5912 5913 5914 5915 5916 5917 5918 5919 5920 5921 5923 5925 5926 5927 5929 5930 5931 5932 5933 5935 5936 5937 5938 5939 5940 5941 5942 5943 5944 5945 5945 5945 5946 5946 5947 5947 5948 5948 5949 5949 5949 5950 5950 5951 5951 5951 5951 5951 5951 5951 5951 5951 5951 5951 5952 5952 5953 5953 5954 5954 5955 5956 5957 5957 5958 5958 5959 5959 5960 5960 5961 5961 5962 5962
5880 5882 5884 5886 5887 5888 5889 5890 5892 5893 5895 5896 5896 5897 5898 5898 5899 5902 5905 5906 5908 5909 5911 5912 5913 5914 5915 5916 5917 5918 5919 5920 5921 5923 5925 5926 5928 5929 5930 5932 5933 5934 5935 5936 5937 5938 5939 5941 5942 5943 5943 5944 5945 5945 5946 5946 5947 5947 5948 5949 5949 5949 5950 5950 5951 5951 5951 5952 5952 5952 5952 5952 5952 5952 5952 5952 5953 5953 5954 5954 5955 5955 5956 5956 5957 5958 5959 5959 5960 5960 5961 5961 5962 5962 5963 5963 5964
5878 5880 5883 5885 5886 5887 5888 5890 5892 5893 5895 5896 5897 5897 5898 5899 5900 5902 5905 5906 5908 5909 5910 5912 5913 5914 5915 5915 5917 5918 5920 5921 5921 5923 5925 5926 5928 5929 5930 5932 5933 5934 5935 5936 5937 5939 5940 5941 5942 5943 5944 5944 5945 5946 5947 5947 5948 5948 5949 5949 5950 5950 5951 5951 5951 5952 5952 5952 5953 5953 5953 5953 5953 5953 5953 5953 5954 5954 5955 5956 5956 5957 5957 5958 5959 5959 5960 5961 5961 5962 5962 5963 5963 5964 5964 5964 5965
5877 5879 5882 5883 5884 5885 5888 5890 5891 5893 5894 5895 5896 5897 5898 5899 5900 5902 5904 5906 5907 5908 5909 5910 5912 5913 5914 5915 5917 5918 5920 5921 5922 5923 5924 5926 5928 5929 5931 5932 5933 5934 5935 5936 5937 5939 5940 5941 5942 5943 5944 5945 5946 5947 5947 5948 5949 5949 5949 5950 5950 5951 5951 5951 5952 5952 5953 5953 5954 5954 5954 5954 5954 5954 5954 5954 5955 5956 5956 5957 5957 5958 5958 5959 5960 5961 5961 5962 5962 5963 5964 5964 5965 5965 5965 5966 5966
5876 5878 5880 5882 5883 5885 5888 5889 5890 5892 5893 5894 5896 5897 5898 5899 5899 5900 5903 5906 5907 5908 5909 5910 5910 5912 5913 5914 5916 5918 5919 5920 5921 5923 5924 5926 5928 5929 5931 5932 5933 5934 5935 5936 5937 5939 5940 5941 5942 5943 5944 5945 5946 5947 5948 5949 5949 5949 5950 5950 5951 5951 5951 5952 5952 5953 5954 5954 5955 5955 5955 5955 5955 5955 5955 5955 5956 5957 5958 5958 5959 5959 5960 5960 5961 5962 5962 5963 5964 5964 5965 5966 5966 5966 5967 5967 5968
5874 5876 5879 5881 5882 5884 5885 5886 5889 5891 5892 5894 5895 5897 5898 5898 5899 5899 5901 5904 5906 5907 5909 5910 5911 5912 5912 5913 5914 5916 5917 5919 5921 5922 5924 5925 5927 5929 5930 5931 5932 5934 5935 5936 5937 5939 5940 5941 5942 5943 5944 5945 5946 5947 5948 5949 5949 5949 5950 5950 5951 5951 5952 5953 5953 5954 5954 5955 5956 5956 5956 5956 5956 5957 5957 5957 5957 5958 5959 5960 5960 5961 5961 5962 5962 5963 5963 5964 5965 5965 5966 5967 5967 5968 5968 5968 5969
5872 5874 5877 5878 5879 5881 5883 5886 5888 5890 5892 5894 5895 5897 5897 5898 5898 5898 5900 5903 5905 5907 5908 5910 5911 5912 5913 5913 5914 5915 5916 5918 5920 5921 5923 5925 5926 5928 5929 5931 5932 5933 5935 5936 5937 5938 5940 5941 5942 5943 5944 5945 5946 5947 5948 5948 5949 5949 5949 5950 5951 5952 5952 5953 5954 5955 5955 5956 5957 5957 5957 5958 5958 5958 5958 5958 5958 5959 5960 5961 5962 5962 5962 5963 5963 5964 5964 5965 5966 5966 5967 5968 5968 5969 5969 5970 5970
5870 5872 5874 5876 5878 5880 5883 5886 5888 5890 5892 5893 5895 5896 5897 5897 5898 5899 5900 5902 5903 5905 5907 5908 5910 5911 5912 5913 5914 5915 5916 5918 5919 5920 5922 5924 5925 5927 5928 5930 5931 5933 5934 5936 5937 5938 5939 5941 5942 5943 5944 5945 5946 5947 5947 5948 5948 5949 5949 5950 5951 5953 5953 5954 5955 5955 5956 5957 5957 5958 5958 5959 5959 5959 5959 5959 5959 5960 5961 5962 5963 5963 5964 5964 5964 5965 5965 5966 5967 5968 5968 5969 5969 5970 5970 5971 5971
5867 5869 5871 5874 5876 5880 5882 5885 5887 5888 5889 5892 5894 5895 5896 5896 5896 5897 5899 5901 5902 5903 5904 5906 5908 5910 5911 5912 5913 5914 5916 5917 5919 5920 5922 5923 5924 5926 5928 5929 5931 5932 5934 5935 5937 5938 5939 5941 5942 5943 5944 5945 5946 5946 5947 5948 5948 5949 5950 5951 5952 5953 5954 5955 5955 5956 5957 5957 5958 5959 5959 5960 5960 5960 5960 5960 5961 5961 5962 5963 5964 5964 5965 5965 5966 5966 5967 5967 5968 5969 5969 5969 5970 5970 5971 5971 5972
5864 5865 5868 5872 5874 5877 5880 5883 5884 5884 5887 5891 5893 5894 5895 5895 5895 5896 5898 5899 5900 5902 5903 5905 5907 5909 5911 5912 5913 5913 5914 5916 5917 5919 5921 5922 5924 5926 5927 5928 5930 5932 5933 5935 5936 5938 5939 5940 5942 5943 5944 5945 5946 5946 5947 5947 5948 5949 5951 5952 5953 5953 5954 5955 5955 5956 5957 5958 5958 5959 5960 5961 5961 5962 5962 5962 5962 5963 5963 5964 5965 5966 5966 5966 5967 5967 5968 5968 5969 5969 5970 5970 5971 5971 5971 5972 5973
5860 5863 5867 5869 5871 5875 5878 5880 5882 5883 5887 5890 5891 5893 5894 5893 5894 5895 5897 5898 5900 5901 5903 5904 5906 5909 5910 5912 5913 5913 5914 5915 5916 5918 5920 5921 5923 5924 5926 5927 5929 5931 5933 5934 5936 5937 5939 5940 5942 5943 5944 5945 5946 5946 5947 5948 5949 5950 5951 5952 5953 5954 5954 5954 5955 5956 5957 5958 5958 5959 5961 5962 5962 5963 5963 5963 5963 5964 5965 5965 5966 5967 5967 5968 5968 5968 5969 5969 5970 5970 5971 5971 5971 5972 5972 5973 5974
5857 5862 5865 5867 5870 5873 5876 5878 5880 5883 5887 5888 5890 5892 5892 5892 5893 5894 5896 5898 5899 5901 5902 5904 5906 5907 5909 5911 5912 5913 5914 5914 5915 5917 5918 5920 5922 5923 5925 5926 5928 5930 5932 5934 5936 5937 5939 5940 5942 5943 5944 5944 5945 5946 5947 5948 5949 5950 5951 5952 5953 5954 5954 5954 5955 5956 5957 5958 5958 5960 5961 5962 5963 5963 5964 5964 5965 5965 5966 5966 5967 5968 5968 5969 5969 5969 5970 5970 5971 5971 5971 5972 5972 5973 5973 5974 5974
5856 5860 5863 5866 5869 5871 5874 5877 5879 5883 5886 5886 5888 5890 5890 5891 5892 5893 5895 5897 5899 5900 5901 5903 5905 5907 5908 5910 5911 5913 5914 5914 5915 5916 5917 5919 5920 5922 5924 5926 5928 5929 5931 5933 5935 5937 5938 5940 5941 5942 5943 5944 5945 5946 5947 5948 5949 5950 5951 5952 5953 5953 5954 5955 5955 5956 5957 5958 5959 5960 5961 5962 5963 5964 5964 5965 5965 5966 5967 5967 5968 5968 5969 5969 5970 5970 5971 5971 5972 5972 5972 5973 5973 5973 5974 5975 5975
5854 5857 5860 5864 5866 5869 5872 5875 5877 5882 5884 5885 5887 5889 5889 5888 5889 5892 5895 5897 5898 5900 5901 5903 5905 5906 5908 5909 5910 5911 5912 5913 5914 5915 5917 5918 5919 5921 5923 5925 5927 5929 5930 5932 5934 5936 5938 5939 5941 5942 5943 5944 5945 5945 5946 5947 5949 5950 5951 5952 5952 5953 5954 5955 5956 5956 5957 5958 5959 5960 5961 5962 5963 5964 5965 5965 5966 5967 5967 5968 5968 5969 5969 5970 5970 5971 5972 5972 5973 5973 5973 5973 5974 5974 5975 5975 5976
5851 5854 5858 5861 5863 5866 5869 5871 5875 5879 5881 5882 5884 5887 5886 5885 5888 5892 5894 5896 5898 5899 5900 5902 5904 5905 5907 5908 5909 5910 5911 5912 5913 5914 5916 5917 5919 5921 5922 5924 5926 5928 5930 5931 5933 5935 5936 5938 5940 5941 5942 5943 5944 5945 5946 5947 5948 5949 5950 5951 5952 5953 5953 5955 5956 5957 5957 5958 5959 5960 5961 5962 5963 5964 5964 5965 5966 5967 5967 5968 5969 5969 5970 5970 5971 5971 5972 5972 5973 5973 5974 5974 5974 5975 5975 5975 5976
5848 5852 5855 5858 5861 5863 5865 5868 5872 5876 5877 5879 5883 5885 5883 5883 5887 5891 5892 5894 5896 5898 5900 5901 5903 5904 5906 5907 5909 5909 5910 5911 5912 5914 5915 5917 5918 5920 5921 5923 5925 5926 5928 5930 5932 5934 5935 5937 5939 5940 5941 5942 5943 5944 5946 5946 5948 5949 5950 5951 5952 5952 5953 5954 5955 5956 5957 5958 5959 5960 5961 5962 5963 5964 5964 5964 5966 5966 5967 5968 5968 5969 5970 5970 5971 5971 5972 5973 5973 5974 5974 5974 5975 5975 5975 5976 5976
5846 5849 5853 5856 5858 5861 5864 5867 5871 5874 5876 5878 5882 5883 5881 5881 5885 5888 5891 5893 5895 5896 5898 5900 5902 5903 5904 5906 5908 5909 5910 5911 5913 5914 5916 5916 5917 5919 5921 5922 5924 5925 5926 5928 5930 5932 5934 5936 5937 5939 5940 5941 5943 5944 5945 5946 5947 5948 5949 5950 5951 5952 5953 5954 5955 5956 5956 5957 5959 5960 5961 5962 5963 5964 5964 5964 5965 5966 5966 5967 5968 5969 5969 5970 5971 5971 5972 5972 5973 5973 5974 5975 5975 5975 5976 5976 5976
5843 5846 5850 5852 5854 5857 5862 5864 5868 5873 5875 5877 5880 5879 5876 5879 5884 5886 5889 5891 5893 5895 5896 5898 5900 5902 5903 5905 5906 5908 5909 5911 5912 5914 5916 5917 5917 5917 5919 5921 5922 5924 5925 5927 5929 5931 5932 5934 5936 5937 5939 5940 5941 5942 5943 5945 5946 5947 5949 5950 5951 5952 5953 5954 5955 5955 5956 5957 5958 5959 5961 5962 5963 5963 5963 5964 5964 5965 5966 5967 5967 5968 5969 5970 5970 5971 5971 5972 5972 5973 5974 5975 5975 5975 5976 5976 5976
5839 5844 5846 5848 5850 5854 5858 5860 5864 5870 5872 5874 5875 5874 5875 5879 5881 5883 5885 5887 5890 5892 5894 5896 5898 5900 5902 5903 5905 5907 5908 5909 5911 5912 5914 5916 5916 5916 5917 5919 5920 5922 5923 5925 5927 5929 5930 5932 5933 5935 5937 5938 5940 5941 5942 5944 5945 5946 5948 5949 5950 5951 5952 5953 5954 5955 5956 5957 5958 5959 5960 5961 5962 5962 5963 5964 5964 5965 5966 5966 5967 5967 5968 5969 5970 5970 5971 5971 5972 5972 5973 5974 5975 5975 5975 5976 5976
5837 5840 5842 5845 5850 5853 5855 5858 5861 5866 5869 5871 5871 5871 5874 5877 5877 5879 5882 5884 5887 5890 5892 5894 5896 5898 5900 5901 5903 5905 5906 5908 5909 5910 5912 5913 5915 5916 5917 5918 5919 5920 5921 5923 5925 5926 5928 5930 5931 5933 5935 5936 5937 5939 5940 5942 5944 5945 5946 5948 5949 5950 5952 5953 5954 5955 5956 5957 5958 5958 5959 5960 5961 5962 5962 5963 5964 5964 5965 5966 5966 5967 5968 5968 5969 5970 5970 5971 5971 5972 5973 5973 5974 5975 5975 5975 5976
5833 5835 5838 5843 5847 5850 5852 5855 5858 5862 5867 5867 5866 5867 5870 5872 5872 5875 5879 5882 5885 5887 5890 5892 5894 5896 5898 5900 5901 5903 5904 5906 5907 5909 5910 5911 5913 5914 5915 5917 5918 5918 5919 5920 5922 5924 5926 5928 5930 5931 5933 5934 5936 5937 5939 5940 5942 5943 5944 5946 5947 5949 5950 5952 5953 5955 5956 5956 5957 5958 5959 5959 5960 5961 5962 5963 5963 5964 5965 5965 5966 5966 5967 5968 5969 5969 5970 5971 5971 5971 5972 5973 5973 5974 5974 5975 5975
5830 5833 5836 5839 5842 5845 5848 5851 5854 5859 5864 5863 5863 5865 5866 5866 5868 5873 5877 5880 5883 5885 5888 5890 5892 5894 5896 5898 5899 5901 5902 5904 5905 5907 5908 5909 5910 5910 5912 5914 5916 5917 5918 5919 5920 5922 5924 5926 5928 5930 5931 5933 5934 5936 5938 5939 5940 5941 5943 5944 5946 5947 5949 5951 5952 5954 5955 5955 5956 5957 5958 5959 5959 5960 5961 5962 5963 5963 5964 5965 5965 5966 5966 5967 5968 5969 5970 5970 5971 5971 5971 5972 5973 5973 5974 5974 5975
5827 5829 5832 5835 5839 5842 5844 5847 5850 5855 5860 5861 5861 5863 5860 5860 5866 5871 5874 5877 5880 5883 5885 5888 5890 5892 5894 5896 5898 5899 5900 5901 5903 5904 5905 5906 5907 5908 5910 5911 5914 5916 5916 5917 5918 5920 5922 5924 5925 5928 5930 5931 5933 5935 5936 5937 5938 5940 5941 5943 5944 5945 5947 5949 5951 5952 5953 5954 5955 5956 5957 5958 5958 5959 5960 5961 5962 5962 5963 5964 5964 5965 5966 5967 5968 5969 5969 5970 5970 5970 5971 5971 5972 5973 5973 5974 5975
5824 5826 5829 5832 5836 5838 5841 5845 5848 5851 5855 5856 5859 5858 5854 5858 5866 5869 5871 5874 5877 5880 5883 5885 5888 5890 5892 5894 5895 5897 5898 5899 5900 5902 5903 5904 5905 5906 5908 5909 5912 5913 5914 5916 5917 5919 5920 5921 5923 5925 5927 5929 5931 5933 5935 5936 5937 5938 5939 5941 5942 5944 5945 5947 5949 5951 5952 5953 5954 5955 5956 5957 5958 5958 5959 5959 5960 5961 5962 5963 5964 5964 5965 5966 5967 5968 5968 5969 5969 5970 5970 5971 5972 5972 5973 5974 5974